Location: Berg
(48.5667°N, 13.9833°E)
Time: 10:20:07
(UTC+00:00)

STARLINK-1239 - Pass Details

Date: 09 April 2020
Orbit: 549 x 551 km, 53.0° (Epoch: 26 May)

Event Time Altitude Azimuth Distance (km) Brightness Sun altitude
Rises 20:04:07 0° 295° (WNW) 2,732 8.5 -20.9°
Reaches altitude 10° 20:06:24 10° 291° (WNW) 1,835 7.3 -21.2°
Maximum altitude 20:10:27 53° 214° (SW) 686 3.9 -21.7°
Enters shadow 20:10:39 52° 203° (SSW) 690 3.9 -21.7°
